Time,TemperatureF,DewpointF,PressureIn,WindDirection,WindDirectionDegrees,WindSpeedMPH,WindSpeedGustMPH,Humidity,HourlyPrecipIn,Conditions,Clouds,dailyrainin,SoftwareType,DateUTC
2013-02-22 00:01:00,31.0,-99.9,-100.00,West,275,0.0,0.0,-999,-99.99,,,-99.99,,2013-02-22 08:01:00,
2013-02-22 00:11:00,31.0,-99.9,-100.00,West,275,0.0,0.0,-999,-99.99,,,-99.99,,2013-02-22 08:11:00,
2013-02-22 00:21:00,31.0,-99.9,-100.00,West,275,0.0,0.0,-999,-99.99,,,-99.99,,2013-02-22 08:21:00,
2013-02-22 02:02:00,25.0,-99.9,-100.00,East,79,0.0,0.0,-999,-99.99,,,-99.99,,2013-02-22 10:02:00,
2013-02-22 04:30:00,25.0,-99.9,-100.00,West,260,0.0,0.0,-999,-99.99,,,-99.99,,2013-02-22 12:30:00,
2013-02-22 05:22:00,25.0,-99.9,-100.00,West,260,0.0,0.0,-999,-99.99,,,-99.99,,2013-02-22 13:22:00,
2013-02-22 06:20:00,22.0,-99.9,-100.00,West,278,0.0,0.0,-999,-99.99,,,-99.99,,2013-02-22 14:20:00,
2013-02-22 06:22:00,22.0,-99.9,-100.00,SW,236,0.0,0.0,-999,-99.99,,,-99.99,,2013-02-22 14:22:00,
2013-02-22 06:32:00,22.0,-99.9,-100.00,SW,236,0.0,0.0,-999,-99.99,,,-99.99,,2013-02-22 14:32:00,
2013-02-22 07:02:00,22.0,-99.9,-100.00,West,278,0.0,0.0,-999,-99.99,,,-99.99,,2013-02-22 15:02:00,
2013-02-22 07:12:00,22.0,-99.9,-100.00,West,278,0.0,0.0,-999,-99.99,,,-99.99,,2013-02-22 15:12:00,
2013-02-22 10:02:00,50.0,-99.9,-100.00,West,266,0.0,0.0,-999,-99.99,,,-99.99,,2013-02-22 18:02:00,
2013-02-22 11:00:00,52.0,-99.9,-100.00,SSW,203,0.0,0.0,-999,-99.99,,,-99.99,,2013-02-22 19:00:00,
2013-02-22 11:52:00,52.0,-99.9,-100.00,SSW,203,0.0,0.0,-999,-99.99,,,-99.99,,2013-02-22 19:52:00,
2013-02-22 13:52:00,53.0,-99.9,-100.00,South,186,0.0,0.0,-999,-99.99,,,-99.99,,2013-02-22 21:52:00,
2013-02-22 14:02:00,53.0,-99.9,-100.00,South,186,0.0,0.0,-999,-99.99,,,-99.99,,2013-02-22 22:02:00,
2013-02-22 15:20:00,47.0,-99.9,-100.00,SW,231,0.0,0.0,-999,-99.99,,,-99.99,,2013-02-22 23:20:00,
2013-02-22 16:02:00,47.0,-99.9,-100.00,SW,231,0.0,0.0,-999,-99.99,,,-99.99,,2013-02-23 00:02:00,
2013-02-22 16:11:00,47.0,-99.9,-100.00,SW,231,0.0,0.0,-999,-99.99,,,-99.99,,2013-02-23 00:11:00,
2013-02-22 17:02:00,45.0,-99.9,-100.00,WSW,239,0.0,0.0,-999,-99.99,,,-99.99,,2013-02-23 01:02:00,
2013-02-22 17:11:00,45.0,-99.9,-100.00,WSW,239,0.0,0.0,-999,-99.99,,,-99.99,,2013-02-23 01:11:00,
2013-02-22 17:22:00,45.0,-99.9,-100.00,WSW,239,0.0,0.0,-999,-99.99,,,-99.99,,2013-02-23 01:22:00,
2013-02-22 17:52:00,44.0,-99.9,-100.00,NW,319,0.0,0.0,-999,-99.99,,,-99.99,,2013-02-23 01:52:00,
2013-02-22 18:02:00,44.0,-99.9,-100.00,NW,319,0.0,0.0,-999,-99.99,,,-99.99,,2013-02-23 02:02:00,
2013-02-22 18:10:00,40.0,-99.9,-100.00,SW,219,0.0,0.0,-999,-99.99,,,-99.99,,2013-02-23 02:10:00,
2013-02-22 18:52:00,40.0,-99.9,-100.00,SW,219,0.0,0.0,-999,-99.99,,,-99.99,,2013-02-23 02:52:00,
2013-02-22 19:02:00,40.0,-99.9,-100.00,SW,219,0.0,0.0,-999,-99.99,,,-99.99,,2013-02-23 03:02:00,
2013-02-22 19:22:00,38.0,-99.9,-100.00,SW,216,0.0,0.0,-999,-99.99,,,-99.99,,2013-02-23 03:22:00,
2013-02-22 19:32:00,38.0,-99.9,-100.00,SW,216,0.0,0.0,-999,-99.99,,,-99.99,,2013-02-23 03:32:00,
2013-02-22 20:10:00,36.0,-99.9,-100.00,NW,319,0.0,0.0,-999,-99.99,,,-99.99,,2013-02-23 04:10:00,
2013-02-22 20:52:00,36.0,-99.9,-100.00,NW,319,0.0,0.0,-999,-99.99,,,-99.99,,2013-02-23 04:52:00,
2013-02-22 21:03:00,36.0,-99.9,-100.00,NW,319,0.0,0.0,-999,-99.99,,,-99.99,,2013-02-23 05:03:00,
2013-02-22 21:50:00,36.0,-99.9,-100.00,WNW,287,0.0,0.0,-999,-99.99,,,-99.99,,2013-02-23 05:50:00,
2013-02-22 22:23:00,35.0,-99.9,-100.00,West,281,0.0,0.0,-999,-99.99,,,-99.99,,2013-02-23 06:23:00,
2013-02-22 22:32:00,36.0,-99.9,-100.00,WNW,287,0.0,0.0,-999,-99.99,,,-99.99,,2013-02-23 06:32:00,
2013-02-22 22:42:00,36.0,-99.9,-100.00,WNW,287,0.0,0.0,-999,-99.99,,,-99.99,,2013-02-23 06:42:00,